Liberia, Costa Rica

2:09 PM CST on April 23, 2018 (GMT -0600)
Daniel Oduber Quiros International

Weather History for MRLB - April, 2015

Change the Weather History Date:

Monday, April 20, 2015

  Actual Average Record
Temperature  
Mean Temperature 86 °F -  
Max Temperature 98 °F 91 °F 99 °F (2014)
Min Temperature 73 °F 76 °F 69 °F (2009)
Cooling Degree Days 20    
Growing Degree Days 36 (Base 50)    
Moisture  
Dew Point 67 °F    
Average Humidity 51    
Maximum Humidity 74    
Minimum Humidity 22    
Precipitation  
Precipitation 0.00 in - - ()
Sea Level Pressure  
Sea Level Pressure 29.80 in    
Wind  
Wind Speed 7 mph ()    
Max Wind Speed 16 mph    
Max Gust Speed -    
Visibility 8.1 miles    
Events      
Averages and records for this station are not official NWS values.
T = Trace of Precipitation, MM = Missing Value Source: Averaged Metar Reports

Daily Weather History Graph

Daily Weather History Graph

Search for Another Location

Airport or City:

Astronomy

Apr. 20, 2015 Rise Set
Actual Time 5:28 AM CST 5:53 PM CST
Civil Twilight 5:07 AM CST 6:14 PM CST
Nautical Twilight 4:42 AM CST 6:40 PM CST
Astronomical Twilight 4:17 AM CST 7:05 PM CST
Moon 7:07 AM CST (4/20) 7:59 PM CST (4/20)
Length of Visible Light 13h 07m
Length of Day
12h 24m
Waxing Crescent, 5% of the Moon is Illuminated
Apr 20
Waxing Crescent
Apr 25
First Quarter
May 3
Full
May 11
Last Quarter
May 17
New

Hourly Weather History & Observations

Time (CST) Temp. Heat Index Dew Point Humidity Pressure Visibility Wind Dir Wind Speed Gust Speed Precip Events Conditions
6:00 AM 74 °F - 67 °F 72% 29.85 in 12 mi SE 3.5 mph - -   Partly Cloudy
6:00 AM 75.2 °F - 66.2 °F 73% 29.82 in - SE 3.5 mph - N/A   Clear
7:00 AM 82.4 °F 84.6 °F 66.2 °F 58% 29.85 in - South 2.3 mph - N/A   Clear
8:00 AM 84.2 °F 86.6 °F 66.2 °F 55% 29.87 in - NNW 2.3 mph - N/A   Clear
9:00 AM 89 °F - 62 °F 31% 29.89 in 12 mi East 12.7 mph - -   Overcast
9:00 AM 89.6 °F 90.1 °F 62.6 °F 40% 29.86 in - East 12.7 mph - N/A   Clear
10:00 AM 91.4 °F 92.1 °F 62.6 °F 38% 29.86 in - East 9.2 mph - N/A   Clear
11:00 AM 93.2 °F 93.3 °F 60.8 °F 34% 29.84 in 6.2 mi SE 9.2 mph - N/A   Mostly Cloudy
12:00 PM 95 °F - 60 °F 22% 29.84 in 12 mi SE 11.5 mph - -   Overcast
12:00 PM 95.0 °F 95.2 °F 60.8 °F 32% 29.82 in 6.2 mi SE 11.5 mph - N/A   Mostly Cloudy
1:00 PM 96.8 °F 96.2 °F 59.0 °F 28% 29.77 in 6.2 mi SE 10.4 mph - N/A   Mostly Cloudy
2:00 PM 93.2 °F 97.7 °F 68.0 °F 44% 29.74 in 6.2 mi West 16.1 mph - N/A   Mostly Cloudy
3:00 PM 89 °F - 70 °F 45% 29.75 in 12 mi West 15.0 mph - -   Overcast
3:00 PM 89.6 °F 94.7 °F 69.8 °F 52% 29.74 in 6.2 mi West 15.0 mph - N/A   Mostly Cloudy
4:00 PM 87.8 °F 93.8 °F 71.6 °F 58% 29.73 in 6.2 mi WNW 13.8 mph - N/A   Scattered Clouds
5:00 PM 86.0 °F 91.8 °F 71.6 °F 62% 29.74 in 6.2 mi WNW 11.5 mph - N/A   Mostly Cloudy
6:00 PM 85 °F - 72 °F 58% 29.80 in 12 mi WNW 6.9 mph - -   Overcast
6:00 PM 84.2 °F 90.9 °F 73.4 °F 70% 29.76 in 6.2 mi WNW 6.9 mph - N/A   Mostly Cloudy
7:00 PM 84.2 °F 90.9 °F 73.4 °F 70% 29.78 in 6.2 mi WNW 2.3 mph - N/A   Partly Cloudy
8:00 PM 82.4 °F 88.2 °F 73.4 °F 74% 29.79 in 6.2 mi North 2.3 mph - N/A   Partly Cloudy